FW9019 Weather Reports


Display with metric or nautical units.
time (UTC)temp
F
wind
direction
speed
MPH
gust
MPH
rain 1hr
in
rain 24hr
in
rain mn
in
humidity
%
barometer
mb
20260507095035 32 0.0 0.0 0.00 0.00 0.00 84 1015.1
20260507094117 32 0.0 0.0 0.00 0.00 0.00 84 1015.0
20260507093056 33 0.0 0.0 0.00 0.00 0.00 83 1014.8
20260507092036 33 0.0 0.0 0.00 0.00 0.00 83 1014.8
20260507091139 33 0.0 0.0 0.00 0.00 0.00 83 1014.9
20260507090119 33 0.0 0.0 0.00 0.00 0.00 82 1015.1
20260507085039 33 0.0 0.0 0.00 0.00 0.00 82 1015.0
20260507084019 33 0.0 0.0 0.00 0.00 0.00 82 1015.0
20260507083100 33 0.0 0.0 0.00 0.00 0.00 81 1014.8
20260507082112 34 0.0 0.0 0.00 0.00 0.00 81 1014.8
20260507081111 34 0.0 0.0 0.00 0.00 0.00 80 1014.8
20260507080135 35 0.0 0.0 0.00 0.00 0.00 80 1014.8
20260507075043 35 0.0 0.0 0.00 0.00 0.00 79 1014.9
20260507074023 35 0.0 0.0 0.00 0.00 0.00 78 1014.9
20260507073104 35 0.0 0.0 0.00 0.00 0.00 78 1014.8
20260507072045 36 0.0 0.0 0.00 0.00 0.00 77 1014.9
20260507071026 37 0.0 0.0 0.00 0.00 0.00 76 1014.9
20260507070127 37 0.0 0.0 0.00 0.00 0.00 75 1015.0
20260507065047 38 0.0 0.0 0.00 0.00 0.00 74 1015.1
20260507064047 38 0.0 0.0 0.00 0.00 0.00 73 1015.1
20260507063038 39 0.0 0.0 0.00 0.00 0.00 71 1015.2
20260507062018 40 0.0 0.0 0.00 0.00 0.00 70 1015.3
20260507061100 41 0.0 0.0 0.00 0.00 0.00 68 1015.4
20260507060040 42 0.0 0.0 0.00 0.00 0.00 68 1015.3
20260507055019 42 0.0 0.0 0.00 0.00 0.00 67 1015.2
20260507054031 43 0.0 0.0 0.00 0.00 0.00 67 1015.1
20260507053113 43 123 0.0 2.0 0.00 0.00 0.00 68 1015.2
20260507052022 42 0.0 0.0 0.00 0.00 0.00 70 1015.1
20260507051104 42 0.0 0.0 0.00 0.00 0.00 71 1015.0
20260507050019 42 0.0 0.0 0.00 0.00 0.00 74 1014.9
20260507045055 41 0.0 0.0 0.00 0.00 0.00 75 1015.0
20260507044136 41 0.0 0.0 0.00 0.00 0.00 77 1015.0
20260507043116 41 0.0 0.0 0.00 0.00 0.00 78 1014.9
20260507042056 40 0.0 0.0 0.00 0.00 0.00 79 1014.8
20260507041036 40 0.0 0.0 0.00 0.00 0.00 79 1014.8
20260507040048 40 0.0 0.0 0.00 0.00 0.00 78 1014.9
20260507035059 40 0.0 0.0 0.00 0.00 0.00 77 1015.0
20260507034039 40 0.0 0.0 0.00 0.00 0.00 76 1014.8
20260507033049 41 0.0 0.0 0.00 0.00 0.00 75 1014.9
20260507032029 41 0.0 0.0 0.00 0.00 0.00 74 1014.7
20260507031111 42 0.0 0.0 0.00 0.00 0.00 73 1014.7
20260507030051 42 0.0 0.0 0.00 0.00 0.00 72 1014.7
20260507025032 43 0.0 0.0 0.00 0.00 0.00 70 1014.6
20260507024114 43 0.0 0.0 0.00 0.00 0.00 68 1014.7
20260507023053 44 0.0 0.0 0.00 0.00 0.00 67 1014.6
20260507022104 45 0.0 0.0 0.00 0.00 0.00 65 1014.5
20260507021045 45 0.0 0.0 0.00 0.00 0.00 63 1014.5
20260507020025 46 0.0 0.0 0.00 0.00 0.00 62 1014.5
20260507015127 47 0.0 0.0 0.00 0.00 0.00 61 1014.3
20260507014047 47 0.0 0.0 0.00 0.00 0.00 59 1014.4
20260507013027 48 0.0 0.0 0.00 0.00 0.00 58 1014.2
20260507012109 49 0.0 0.0 0.00 0.00 0.00 58 1014.3
20260507011109 49 0.0 0.0 0.00 0.00 0.00 58 1014.1
20260507010029 49 0.0 0.0 0.00 0.00 0.00 57 1014.1
20260507005111 50 0.0 0.0 0.00 0.00 0.00 54 1013.9
20260507004051 51 0.0 0.0 0.00 0.00 0.00 52 1013.8
20260507003031 52 125 0.0 1.0 0.00 0.00 0.00 49 1013.6
20260507002112 52 124 0.0 1.0 0.00 0.00 0.00 47 1013.6
20260507001052 53 124 0.0 2.0 0.00 0.00 0.00 46 1013.3
20260507000033 53 0.0 0.0 0.00 0.00 0.00 45 1013.3
20260506235134 53 132 0.0 2.0 0.00 0.00 0.00 44 1013.2
20260506234054 54 133 2.0 5.0 0.00 0.00 0.00 43 1013.3
20260506233035 54 151 0.0 2.0 0.00 0.00 0.00 43 1013.3
20260506232136 55 151 1.0 2.0 0.00 0.00 0.00 42 1013.3
20260506231057 55 158 1.0 2.0 0.00 0.00 0.00 42 1013.4
20260506230036 55 125 1.0 3.0 0.00 0.00 0.00 42 1013.4
20260506225119 55 126 1.0 5.0 0.00 0.00 0.00 42 1013.4
20260506224059 56 126 1.0 2.0 0.00 0.00 0.00 43 1013.3
20260506223039 56 123 1.0 6.0 0.00 0.00 0.00 42 1013.5
20260506222039 56 147 1.0 2.0 0.00 0.00 0.00 45 1013.5
20260506221101 55 155 1.0 2.0 0.00 0.00 0.00 48 1013.6
20260506220041 56 160 0.0 2.0 0.00 0.00 0.00 49 1013.6
20260506215020 56 121 0.0 2.0 0.00 0.00 0.00 48 1013.6
20260506214103 56 140 1.0 2.0 0.00 0.00 0.00 48 1013.5
20260506213042 56 126 0.0 1.0 0.00 0.00 0.00 46 1013.5
20260506212022 57 131 1.0 3.0 0.00 0.00 0.00 45 1013.3
20260506211104 56 119 0.0 2.0 0.00 0.00 0.00 47 1013.2
20260506210045 56 119 1.0 1.0 0.00 0.00 0.00 47 1013.2
20260506205056 56 123 1.0 3.0 0.00 0.00 0.00 46 1013.1
20260506204035 56 126 1.0 2.0 0.00 0.00 0.00 45 1013.2
20260506203137 57 127 0.0 1.0 0.00 0.00 0.00 45 1013.2
20260506202057 57 127 0.0 1.0 0.00 0.00 0.00 43 1013.3
20260506201037 57 127 1.0 3.0 0.00 0.00 0.00 42 1013.3
20260506200017 57 127 1.0 3.0 0.00 0.00 0.00 43 1013.4
20260506195059 57 127 1.0 2.0 0.00 0.00 0.00 46 1013.5
20260506194040 56 127 0.0 1.0 0.00 0.00 0.00 46 1013.4
20260506193019 56 127 1.0 1.0 0.00 0.00 0.00 45 1013.4
20260506192101 56 132 2.0 5.0 0.00 0.00 0.00 46 1013.4
20260506191041 57 138 1.0 2.0 0.00 0.00 0.00 44 1013.4
20260506190042 56 145 0.0 2.0 0.00 0.00 0.00 47 1013.3
20260506185123 56 151 0.0 1.0 0.00 0.00 0.00 46 1013.4
20260506184043 56 152 1.0 2.0 0.00 0.00 0.00 45 1013.4
20260506183044 57 155 1.0 2.0 0.00 0.00 0.00 44 1013.4
20260506182105 57 158 0.0 1.0 0.00 0.00 0.00 43 1013.2
20260506181045 57 160 0.0 1.0 0.00 0.00 0.00 42 1013.5
20260506180027 57 161 0.0 2.0 0.00 0.00 0.00 43 1013.5
20260506175107 56 161 0.0 2.0 0.00 0.00 0.00 45 1013.6
20260506174107 56 162 0.0 2.0 0.00 0.00 0.00 46 1013.4
20260506173047 56 162 0.0 2.0 0.00 0.00 0.00 46 1013.5
20260506172110 56 163 0.0 1.0 0.00 0.00 0.00 46 1013.5
20260506171050 56 0.0 0.0 0.00 0.00 0.00 46 1013.4
20260506170100 56 0.0 0.0 0.00 0.00 0.00 44 1013.6
20260506165041 56 163 0.0 1.0 0.00 0.00 0.00 45 1013.6
20260506164020 56 163 0.0 2.0 0.00 0.00 0.00 45 1013.5
20260506163031 57 163 0.0 1.0 0.00 0.00 0.00 44 1013.4
20260506162113 58 163 0.0 1.0 0.00 0.00 0.00 44 1013.2
20260506161100 57 163 0.0 2.0 0.00 0.00 0.00 43 1013.0
20260506160157 57 164 1.0 2.0 0.00 0.00 0.00 46 1013.2
20260506155044 56 165 0.0 1.0 0.00 0.00 0.00 46 1013.4
20260506154026 57 0.0 0.0 0.00 0.00 0.00 46 1013.1
20260506153106 56 165 0.0 1.0 0.00 0.00 0.00 48 1013.2
20260506152047 56 0.0 0.0 0.00 0.00 0.00 46 1013.0
20260506151026 58 165 0.0 1.0 0.00 0.00 0.00 46 1013.2
20260506150109 60 165 0.0 2.0 0.00 0.00 0.00 45 1013.1
20260506145017 58 165 1.0 2.0 0.00 0.00 0.00 45 1013.2
20260506144059 57 166 0.0 1.0 0.00 0.00 0.00 50 1012.8
20260506143039 57 166 1.0 2.0 0.00 0.00 0.00 50 1012.8
20260506142039 58 0.0 0.0 0.00 0.00 0.00 52 1012.8
20260506141030 59 206 1.0 1.0 0.00 0.00 0.00 51 1012.6
20260506140113 58 217 1.0 2.0 0.00 0.00 0.00 54 1012.6
20260506135022 57 221 0.0 1.0 0.00 0.00 0.00 55 1012.6
20260506134123 56 223 0.0 1.0 0.00 0.00 0.00 56 1012.2
20260506133043 56 223 0.0 1.0 0.00 0.00 0.00 63 1012.4
20260506132054 53 224 0.0 2.0 0.00 0.00 0.00 73 1012.3
20260506131034 51 0.0 0.0 0.00 0.00 0.00 85 1012.2
20260506130137 50 225 0.0 1.0 0.00 0.00 0.00 89 1012.7
20260506125116 50 0.0 0.0 0.00 0.00 0.00 90 1012.3
20260506124036 50 0.0 0.0 0.00 0.00 0.00 91 1012.2
20260506123048 48 0.0 0.0 0.00 0.00 0.00 91 1011.8
20260506122027 48 0.0 0.0 0.00 0.00 0.00 91 1012.2
20260506121109 46 0.0 0.0 0.00 0.00 0.00 92 1011.6
20260506120110 44 0.0 0.0 0.00 0.00 0.00 91 1011.6
20260506115029 44 0.0 0.0 0.00 0.00 0.00 91 1011.3
20260506114111 43 0.0 0.0 0.00 0.00 0.00 91 1011.1
20260506113052 43 0.0 0.0 0.00 0.00 0.00 91 1011.4
20260506112031 43 0.0 0.0 0.00 0.00 0.00 91 1010.9
20260506111114 43 0.0 0.0 0.00 0.00 0.00 91 1010.5
20260506110053 42 0.0 0.0 0.00 0.00 0.00 91 1010.6
20260506105053 42 0.0 0.0 0.00 0.00 0.00 91 1010.2
20260506104122 43 0.0 0.0 0.00 0.00 0.00 91 1010.0
20260506103055 43 0.0 0.0 0.00 0.00 0.00 91 1009.6
20260506102037 43 0.0 0.0 0.00 0.00 0.00 91 1009.8
20260506101117 43 0.0 0.0 0.00 0.00 0.00 91 1009.8
20260506100129 43 0.0 0.0 0.00 0.00 0.00 91 1010.1